Location: Unspecified
(0.0000°N, 0.0000°E)
Time: 07:16:19
(UTC+00:00)

COSMOS-2414 - Visible Passes

Search period start: 09 June 2023 00:00
Search period end: 19 June 2023 00:00
Orbit: 908 x 965 km, 82.9° (Epoch: 08 June)

Date Brightness Start Highest point End Pass type
(mag) Time Alt. Az. Time Alt. Az. Time Alt. Az.
09 Jun 7.5 04:42:47 10° NNE 04:48:11 36° E 04:53:32 10° SSE visible
10 Jun 6.5 04:55:57 10° N 05:01:51 61° E 05:07:41 10° SSE visible
11 Jun 5.8 05:09:32 10° N 05:15:31 81° W 05:21:27 10° S visible
12 Jun 8.8 03:43:09 10° ENE 03:44:55 11° E 03:46:41 10° ESE visible
12 Jun 6.1 05:23:28 10° NNW 05:29:10 47° W 05:34:50 10° SSW visible
13 Jun 8.2 03:54:20 10° NE 03:58:36 20° E 04:02:50 10° SE visible
14 Jun 7.4 04:06:55 10° NNE 04:12:16 34° E 04:17:33 10° SSE visible
15 Jun 6.4 04:20:05 10° N 04:25:56 59° E 04:31:43 10° SSE visible
16 Jun 5.8 04:33:38 10° N 04:39:35 83° W 04:45:30 10° S visible
17 Jun 8.7 03:07:40 10° ENE 03:08:59 11° E 03:10:21 10° E visible
17 Jun 6.0 04:47:32 10° NNW 04:53:14 49° W 04:58:55 10° SSW visible
18 Jun 8.1 03:18:32 10° NE 03:22:40 20° E 03:26:47 10° SE visible
18 Jun 6.6 05:01:53 10° NW 05:06:54 29° W 05:11:54 10° SSW visible
